Location: Unspecified
(39.1734°N, 0.0000°E)
Time: 15:55:19
(UTC+00:00)

X-37B - Visible Passes

Search period start: 30 September 2020 00:00
Search period end: 10 October 2020 00:00
Orbit: 386 x 387 km, 45.0° (Epoch: 18 September)

Date Brightness Start Highest point End Pass type
(mag) Time Alt. Az. Time Alt. Az. Time Alt. Az.
30 Sep 2.9 19:28:37 10° SSW 19:29:30 16° SSW 19:29:30 16° SSW visible
01 Oct 2.3 18:30:50 10° S 18:33:06 18° SE 18:34:08 16° ESE visible
01 Oct 3.9 20:06:17 10° WSW 20:06:26 11° WSW 20:06:26 11° WSW visible
02 Oct 0.5 19:07:45 10° SW 19:10:53 66° SSE 19:10:54 66° SSE visible
03 Oct 1.5 18:09:29 10° SSW 18:12:24 34° SE 18:15:15 10° E visible
03 Oct 2.9 19:45:54 10° W 19:47:32 25° WNW 19:47:32 25° WNW visible
04 Oct 0.7 18:47:10 10° WSW 18:50:20 70° NNW 18:51:46 29° NE visible
05 Oct 2.1 19:25:37 10° WNW 19:28:11 32° NNW 19:28:11 32° NNW visible
06 Oct 1.4 18:26:47 10° W 18:29:51 44° NNW 18:32:15 15° NE visible
06 Oct 4.0 20:04:09 10° WNW 20:04:31 12° NW 20:04:31 12° NW visible
07 Oct 2.1 19:05:21 10° WNW 19:08:09 28° N 19:08:32 27° N visible
08 Oct 1.9 18:06:30 10° WNW 18:09:25 33° NNW 18:12:20 10° NE visible
08 Oct 3.4 19:43:43 10° NW 19:44:47 17° NW 19:44:47 17° NW visible
09 Oct 2.1 18:45:01 10° WNW 18:47:48 26° N 18:48:46 22° NNE visible
